Location: Lourdes
(43.1000°N, 0.0500°W)
Time: 04:43:34
(UTC+00:00)

BREEZE-M DEB (TANK) - Pass Details

Date: 30 November 2020
Orbit: 298 x 20368 km, 49.3° (Epoch: 24 January)

Event Time Altitude Azimuth Distance (km) Brightness Sun altitude
Rises 16:50:52 0° 239° (WSW) 3,953 9.9 -4.8°
Reaches altitude 10° 16:54:37 10° 239° (WSW) 1,995 7.5 -5.4°
Maximum altitude 16:58:08 81° 151° (SSE) 363 1.9 -6.0°
Drops below altitude 10° 17:00:11 10° 64° (ENE) 1,170 3.8 -6.3°
Enters shadow 17:00:21 - 64° (ENE) 1,259 4.0 -6.3°
